Dewpoint
58 58 58 58 59 59 59 60 60 60 59 59 60 60 60 60 61 60 59 60 61 61 59 60 60 60 61 61 59 58 55 14 16 22 22 31 45 54 56 55 56 56 55 44 39 31 18 17 16 16 15 15 18 18 20 22 21 28 21 13 14 13 14 16 14 14 17 14 15 15 20 14 10 21 22 19 21 22 23 20 17 17 13 13 12 12 12 12
58 57 58 59 59 59 59 60 60 60 60 61 60 60 60 60 60 60 60 60 61 61 60 60 60 61 60 61 61 56 43 17 11 15 29 48 54 55 55 54 56 56 55 41 22 20 15 11 12 15 11 13 12 15 18 21 18 21 12 15 12 18 16 16 15 15 15 15 14 12 13 14 15 18 19 17 20 24 23 21 18 16 14 13 12 11 10 10
58 58 58 58 59 59 59 60 60 60 60 60 61 60 60 60 60 60 60 60 60 59 60 60 59 60 60 60 60 55 35 7 11 14 19 54 53 54 55 54 54 54 45 30 26 24 18 13 11 9 4 5 6 16 17 24 20 22 16 14 20 19 13 15 15 15 14 14 11 11 12 14 22 20 20 20 21 24 24 21 18 16 13 11 10 9 9 8
58 58 58 58 58 58 59 60 59 60 60 61 61 61 60 60 60 59 60 61 61 61 60 60 58 57 57 57 57 51 34 27 10 16 21 53 52 53 54 53 52 50 39 32 27 24 22 21 14 10 10 12 16 12 18 23 20 22 19 17 16 16 14 12 12 9 7 9 8 9 11 14 21 21 21 22 20 20 25 26 25 18 11 9 9 9 7 6
58 58 58 57 58 58 59 59 60 60 60 61 60 61 60 61 59 60 61 60 61 59 60 56 54 52 53 55 55 39 29 9 11 16 25 49 52 54 52 53 54 42 38 25 25 23 19 14 14 15 19 17 20 22 22 20 22 25 19 16 14 14 10 11 7 7 11 13 13 8 13 12 20 23 23 22 21 22 24 25 23 16 11 9 8 7 6 5
58 57 57 57 57 58 59 59 60 60 60 60 61 61 60 60 59 59 60 60 60 61 59 60 60 59 58 53 46 36 28 7 23 15 47 47 49 54 52 52 53 49 43 31 17 17 13 11 13 16 17 14 11 15 17 19 21 17 17 13 13 13 10 10 7 11 15 10 9 13 12 18 17 15 20 21 22 22 21 21 18 15 11 7 6 6 5 6
57 57 57 57 57 58 58 59 59 60 60 60 60 61 60 59 59 59 59 59 60 59 60 58 60 58 55 53 29 16 13 14 14 18 45 47 48 49 49 51 50 31 19 15 14 11 9 6 9 19 19 24 16 20 18 19 22 21 19 13 13 12 11 10 9 7 11 12 11 12 16 16 12 14 18 18 20 22 20 16 15 13 11 9 7 5 5 5
57 57 56 57 57 58 59 59 59 59 60 61 61 61 60 58 58 58 58 58 57 58 58 57 57 57 57 41 39 17 13 13 14 19 42 45 31 31 37 39 21 18 12 17 17 14 17 14 12 20 14 13 16 20 23 22 18 18 17 14 12 12 10 8 5 4 8 12 7 3 3 8 14 16 17 15 15 15 13 12 11 10 9 7 6 6 7 6
57 57 56 57 57 58 59 59 60 60 61 61 60 59 60 59 57 58 58 58 56 55 55 54 54 55 54 38 26 11 10 13 15 16 17 20 20 20 20 12 18 8 13 16 16 11 9 14 14 16 15 14 13 19 20 22 24 25 19 13 8 6 7 1 -2 1 4 10 7 6 2 6 16 16 15 14 12 10 8 6 5 4 2 2 3 4 4 4
57 57 57 57 57 58 59 59 60 60 61 61 60 60 60 59 58 59 59 59 59 57 56 56 53 51 44 26 26 9 11 14 15 16 16 21 17 15 15 16 16 11 13 16 18 17 15 13 17 15 19 17 16 22 25 18 15 28 15 14 9 1 5 -1 0 -1 -1 12 -0 -0 2 4 16 14 15 14 9 6 4 3 3 2 1 0 2 4 2 1
57 57 57 58 58 58 58 59 58 59 60 61 60 60 61 59 59 59 59 59 58 57 57 54 52 33 16 10 11 8 11 14 18 14 16 21 16 13 13 16 17 13 7 13 16 19 18 15 21 19 26 19 21 20 18 21 26 16 9 17 16 10 -0 -2 -1 1 1 0 1 3 3 10 15 17 13 13 10 5 3 1 1 -0 -0 -1 -0 -1 1 -0
57 57 57 58 58 58 59 59 58 59 59 59 59 59 59 58 58 59 59 57 55 54 53 52 54 23 9 8 8 8 12 15 19 14 16 20 18 19 16 14 16 15 7 8 12 18 24 24 12 22 14 25 14 18 24 15 20 13 13 10 10 7 2 1 1 2 2 2 4 5 6 14 16 14 14 13 9 4 1 0 -0 -1 -1 -1 -1 -1 0 1
57 57 57 58 58 58 58 58 58 59 59 58 58 58 59 58 58 59 60 51 55 54 55 54 52 25 34 13 9 10 14 18 16 15 16 20 22 18 14 11 14 17 12 9 12 18 25 23 7 15 22 20 23 19 27 21 9 20 12 10 11 11 7 3 3 4 1 2 5 9 6 8 12 13 13 12 6 2 1 -0 -1 -1 -2 -2 -2 -2 -1 1
57 57 57 58 57 58 58 58 58 58 57 57 57 57 57 58 57 57 57 58 56 56 52 56 43 16 19 12 6 11 14 21 12 13 16 20 17 16 15 11 10 14 16 16 18 23 23 24 22 22 26 19 23 29 22 6 13 9 13 14 14 6 13 5 6 5 5 7 7 6 8 5 13 14 14 12 6 3 0 -1 -2 -2 -2 -1 -0 -2 -1 0
57 56 57 58 57 58 58 56 56 55 56 56 56 55 55 54 55 54 55 53 54 54 55 55 31 33 17 10 10 14 44 32 11 12 17 20 19 9 10 11 7 9 11 11 12 18 17 22 16 16 15 26 28 28 19 14 11 11 11 10 10 8 7 5 9 6 8 4 6 12 9 4 8 12 14 12 8 3 0 -1 -1 -2 -2 -3 -2 -3 -2 -0
56 56 58 57 58 56 55 56 56 56 56 55 54 55 55 55 53 54 52 51 52 52 44 33 34 18 13 8 6 31 15 9 10 12 15 20 19 15 15 9 10 7 6 8 9 11 13 15 19 19 14 11 11 8 16 8 8 9 8 14 11 5 7 8 7 11 10 5 6 11 9 8 8 10 13 13 8 3 -0 -1 -1 -2 -2 -2 -3 -1 -1 2
56 56 57 57 56 55 54 53 52 52 51 51 50 50 50 50 48 49 48 49 41 45 17 24 26 25 16 13 13 8 11 9 12 12 13 19 20 18 12 8 6 6 3 6 7 10 12 11 25 24 17 8 9 13 11 7 9 5 10 6 9 10 6 4 7 10 13 9 9 10 9 6 8 9 12 13 9 3 -0 -1 -1 -1 -2 -1 -1 -2 -1 0
56 56 57 57 56 56 54 51 52 54 54 53 49 44 37 50 47 45 41 47 44 38 38 25 26 29 16 10 9 10 13 11 12 11 13 18 22 19 15 13 12 4 4 0 8 12 14 11 11 10 12 11 8 10 9 5 5 6 7 9 9 7 6 5 5 10 13 15 12 6 5 2 8 9 11 13 10 3 1 -0 -1 -1 -1 -1 -1 1 3 5
57 57 57 57 57 57 56 56 55 57 56 57 57 57 56 54 49 29 30 26 37 29 25 23 27 20 17 13 12 12 14 14 16 9 12 17 19 19 15 16 16 8 14 9 14 16 18 15 18 11 11 10 8 11 7 10 11 11 13 12 8 11 7 4 7 11 16 14 14 4 6 1 7 9 11 12 10 4 1 0 0 -1 -1 -1 1 5 7 8
56 57 57 57 57 56 56 55 56 57 56 49 53 53 43 33 27 24 29 29 27 25 28 29 23 21 10 11 12 14 16 15 7 9 12 16 19 16 11 17 21 17 18 16 22 18 25 14 11 10 15 13 10 13 13 14 15 16 13 11 8 8 7 7 9 11 14 13 9 8 6 2 8 8 10 11 8 3 1 0 0 1 -1 2 3 5 8 8
56 56 56 57 56 55 56 56 54 54 53 52 42 40 32 29 28 19 28 28 29 27 21 23 20 13 11 13 13 14 11 7 7 8 11 18 17 17 13 15 18 17 19 24 25 24 19 12 15 16 11 13 12 14 14 14 16 11 9 9 7 10 4 6 8 10 12 12 8 6 3 2 7 7 8 9 6 2 1 1 -0 -0 0 1 5 8 9 8
55 56 56 57 57 56 55 55 55 53 52 49 41 31 35 37 43 39 35 20 27 30 20 18 17 13 15 14 15 17 16 9 10 7 12 16 16 9 20 14 18 16 18 25 21 18 14 13 16 15 12 18 19 15 10 13 14 10 5 6 10 4 8 9 11 10 9 11 9 6 5 6 6 7 7 6 4 4 2 1 0 0 5 6 7 8 9 9
55 55 56 56 57 57 57 55 52 51 48 37 40 34 37 43 41 40 46 22 23 25 27 24 20 14 12 15 13 16 8 11 15 7 12 15 16 24 26 15 18 20 18 15 13 11 12 14 10 15 17 19 18 13 10 12 13 6 6 5 5 8 8 4 7 10 9 11 9 9 7 3 5 5 4 4 3 3 4 4 7 8 5 5 6 8 9 7
55 55 56 56 56 56 57 55 52 49 47 44 44 42 43 46 44 41 39 24 22 27 28 23 22 17 15 14 19 15 11 13 11 8 15 15 17 25 21 19 19 19 18 20 14 14 12 16 12 19 20 16 12 11 11 7 6 12 11 8 7 6 5 5 6 9 13 15 16 8 5 5 5 3 2 3 4 3 4 3 5 5 8 7 9 8 7 6
54 55 55 56 53 53 54 54 40 42 47 42 42 45 47 48 46 45 37 22 24 25 24 33 25 14 16 18 18 23 16 15 13 13 20 15 20 22 18 25 25 16 21 19 24 16 15 15 18 24 12 10 11 9 11 8 4 7 11 8 5 5 6 7 8 6 2 -2 13 9 -2 -6 3 2 2 2 1 1 2 5 4 5 6 8 7 8 8 8
54 55 54 55 53 53 54 36 39 42 50 44 44 45 47 47 49 46 35 20 12 17 34 21 16 19 19 15 18 27 26 20 17 13 19 15 25 21 25 15 19 15 21 23 13 13 16 17 18 17 12 12 12 8 11 9 5 6 7 9 7 6 8 8 8 6 3 1 7 9 -5 -2 -2 2 1 1 1 1 3 5 5 8 9 8 8 7 7 4
54 54 53 54 52 51 38 36 48 46 40 38 49 47 47 47 48 52 32 17 11 22 24 24 25 22 28 16 21 24 14 19 16 11 15 19 24 25 27 18 23 25 25 22 22 9 19 16 13 12 9 10 9 5 8 5 9 9 12 9 10 10 10 11 8 6 2 7 9 7 -3 -5 -5 2 4 3 2 3 4 6 10 9 8 9 7 8 7 4
54 54 53 53 53 50 41 42 43 38 49 51 48 48 47 45 48 48 23 9 12 26 20 22 21 25 19 21 20 16 18 24 23 11 18 22 19 25 19 20 16 19 22 26 7 15 17 19 16 14 12 8 4 6 8 11 9 8 11 12 11 12 12 11 9 3 3 3 0 -4 2 -4 -3 -0 5 5 2 4 6 7 9 8 8 9 5 2 0 -1
54 54 54 52 50 51 52 48 47 48 46 48 48 48 50 50 44 28 17 8 20 20 28 29 26 22 23 27 21 23 22 25 17 20 24 25 19 24 14 18 23 18 22 20 9 19 21 15 19 22 9 5 11 6 7 10 6 12 12 15 14 13 12 11 3 3 6 3 1 -5 -2 -4 -6 -5 4 6 3 3 7 7 8 8 8 7 5 -1 -3 -1
53 53 54 53 51 49 45 48 47 50 47 48 49 45 46 44 30 18 11 6 25 18 25 26 20 19 29 29 26 23 19 21 27 25 25 18 18 21 23 23 26 18 19 23 20 20 16 24 28 23 10 10 8 8 13 9 10 14 11 8 8 8 1 0 1 4 6 -2 -2 -1 -3 -5 -5 -8 2 1 5 11 9 8 9 11 8 4 -2 -2 -1 -7
52 52 52 52 50 49 49 36 45 50 49 48 49 48 44 31 17 8 5 20 22 26 31 28 23 28 22 22 16 22 27 24 24 25 18 24 17 20 25 20 29 18 13 19 18 23 22 24 28 21 24 15 12 12 15 15 14 11 4 2 5 1 -0 1 5 8 1 -2 -4 -2 -2 -1 -5 -9 -3 8 12 12 11 11 9 8 7 4 1 -2 -6 -9
48 50 50 47 48 51 47 42 48 50 51 47 48 44 24 21 20 10 14 27 21 20 20 19 28 21 23 22 20 20 16 22 24 24 18 15 15 13 13 11 18 13 9 8 9 19 14 9 13 22 21 18 12 7 7 18 13 7 3 4 4 3 2 -0 -0 0 -0 -1 -2 -1 -0 -5 -7 -4 7 7 7 8 11 11 11 9 4 -0 -4 -7 -11 -11
49 47 46 45 47 46 46 48 49 49 48 45 46 29 22 14 7 11 13 19 14 26 25 28 23 21 18 22 17 20 23 15 21 22 26 19 15 18 20 18 19 15 4 10 4 6 10 16 13 18 17 14 8 1 1 2 5 4 2 4 4 2 0 1 -2 1 0 1 0 -0 2 -7 -3 0 5 5 6 8 11 12 10 6 -4 -13 -19 -10 -7 -8
50 48 40 42 44 44 47 46 48 49 47 44 33 26 13 13 11 23 19 15 17 26 26 21 21 22 20 8 17 20 11 20 21 19 20 14 11 8 11 15 17 17 21 6 3 4 8 7 8 12 6 13 6 3 3 5 4 1 8 1 4 5 1 1 1 -0 2 2 1 2 2 1 -1 3 7 5 7 8 7 7 5 1 -5 -1 -3 -11 -15 -11
47 49 49 50 49 46 46 45 48 47 47 36 23 19 14 10 14 17 19 16 19 24 23 25 20 16 20 17 19 20 18 15 19 19 15 11 7 5 9 7 16 17 17 14 16 15 9 5 15 16 13 9 9 12 14 13 7 3 5 4 4 4 6 2 3 4 6 3 2 5 0 3 -1 4 6 6 6 10 4 2 1 -2 -3 -9 -29 -14 -12 -12
52 38 49 36 39 41 44 47 44 44 43 27 20 14 15 17 13 11 20 28 24 21 23 22 23 14 4 7 18 15 27 20 19 16 13 13 12 9 16 13 11 16 17 12 14 10 9 2 15 16 12 5 5 9 14 12 4 2 2 4 2 5 3 5 4 2 2 2 1 5 4 1 2 3 3 5 6 3 6 1 -10 -31 -30 -10 -10 -16 -16 -14
36 43 29 37 36 38 41 46 45 44 39 24 23 15 15 20 19 21 27 25 25 26 19 17 17 15 13 12 8 16 19 21 16 12 4 17 11 15 14 15 19 17 16 15 14 18 10 6 16 14 10 11 8 8 14 14 10 6 6 1 10 7 7 7 1 3 2 -0 1 2 3 4 2 -3 -0 1 1 3 2 1 -1 -3 -6 -17 -22 -18 -18 -14
40 36 35 37 36 39 42 46 45 42 30 23 20 23 15 15 24 28 28 27 25 21 16 10 18 21 16 9 11 16 18 20 14 15 8 13 9 18 15 11 16 14 17 20 16 16 11 11 10 6 9 14 16 12 11 13 14 5 2 13 5 2 2 2 4 0 -0 -0 0 1 6 6 1 2 -0 4 3 -0 -1 -2 -5 -10 -13 -17 -21 -20 -19 -17
38 36 28 36 38 39 44 43 48 31 28 24 20 19 20 23 25 27 30 30 28 24 12 14 17 14 13 12 13 13 17 13 13 4 6 10 9 17 12 16 16 19 17 20 18 11 11 11 7 10 5 8 5 7 6 3 11 13 10 6 8 4 4 2 4 4 2 0 1 2 6 2 5 5 2 0 4 -3 -4 -7 -11 -10 -11 -18 -24 -23 -19 -15
32 27 25 41 40 42 40 46 36 29 30 22 25 23 23 24 29 30 27 31 23 19 16 14 18 14 9 16 16 17 16 14 6 7 12 9 8 17 16 16 15 16 21 20 12 14 16 6 7 7 12 12 5 1 1 1 6 5 7 9 8 10 9 6 7 4 1 1 1 1 -0 2 -1 1 -1 4 -3 -3 -5 -6 -8 -12 -17 -22 -23 -21 -17 -15
37 31 32 41 42 45 47 36 28 25 22 21 22 22 26 25 29 30 34 34 31 28 19 18 10 11 14 13 15 16 13 8 8 11 10 10 6 13 18 21 18 18 15 14 14 12 16 7 9 6 5 4 2 5 2 2 2 5 6 9 9 6 4 2 2 10 5 2 2 0 -1 3 3 0 7 -3 -4 -4 -6 -7 -8 -9 -17 -23 -21 -18 -18 -14
27 23 29 36 41 46 38 28 25 22 21 18 18 26 26 32 29 29 30 33 31 18 25 24 20 18 15 12 17 17 12 13 6 11 14 12 15 11 22 30 28 25 20 17 17 13 16 9 6 10 6 6 4 6 5 5 6 6 4 6 8 11 8 3 0 2 5 5 7 4 3 3 5 -1 1 -3 -3 -5 -5 -6 -10 -17 -22 -23 -21 -17 -16 -14
30 24 33 37 42 41 31 26 24 28 25 26 31 27 29 25 25 27 25 26 23 27 21 22 25 21 20 21 20 14 18 15 15 14 14 15 15 18 30 29 27 26 18 15 13 11 19 14 9 7 7 8 5 7 5 7 7 5 4 6 8 8 7 6 4 6 3 5 2 2 2 3 1 1 -0 -2 -2 -4 -5 -6 -10 -16 -21 -23 -21 -19 -20 -15
29 26 28 39 43 35 33 20 24 25 23 25 26 25 29 26 24 24 24 23 23 18 20 19 22 23 22 24 16 15 17 16 16 12 16 15 16 28 29 29 26 14 16 20 18 17 15 6 4 8 10 7 2 2 5 6 6 3 7 5 8 11 11 9 8 6 2 5 3 2 -0 2 3 2 0 -1 -2 -4 -4 -6 -12 -21 -21 -18 -23 -21 -19 -14
25 31 26 28 31 31 31 31 22 24 22 25 23 22 24 23 29 29 25 26 25 20 19 18 22 22 21 24 22 17 17 15 9 16 16 14 23 29 29 29 26 19 23 29 25 18 16 9 6 7 8 8 8 8 8 8 12 5 4 5 10 14 12 7 3 3 2 4 5 3 2 2 2 2 0 -1 -1 -2 -3 -7 -13 -19 -24 -22 -19 -22 -19 -14
22 15 27 25 27 26 25 25 27 24 23 22 22 19 21 20 26 30 30 26 26 24 19 24 22 18 21 22 19 17 16 19 14 16 16 17 15 25 28 29 28 25 25 25 25 16 13 9 4 7 8 8 11 12 12 11 5 9 14 15 14 11 13 10 6 4 2 5 4 4 5 3 2 1 1 1 -1 -3 -4 -8 -16 -21 -21 -25 -24 -22 -18 -13
31 22 21 18 27 24 21 22 22 21 22 20 17 23 23 20 22 24 30 20 26 25 21 23 22 19 19 20 19 15 18 17 15 15 17 18 20 16 25 26 28 29 27 28 24 18 13 12 15 10 13 9 7 7 8 9 6 5 11 14 17 13 13 10 5 4 6 4 2 5 3 6 3 2 1 1 -2 -2 -4 -7 -17 -22 -21 -23 -25 -22 -7 -14
27 25 27 29 32 20 20 19 24 27 27 24 23 22 22 20 20 24 23 25 26 23 21 20 22 23 18 19 18 17 17 17 15 18 18 18 21 16 18 25 25 29 28 23 20 17 13 11 20 13 14 13 10 8 8 7 6 6 7 8 12 13 12 8 9 8 5 4 2 3 3 4 3 3 2 1 -2 -3 -3 -9 -18 -21 -22 -22 -24 -22 -18 -16
28 22 24 29 28 18 26 29 31 28 27 20 16 22 22 20 22 21 21 22 22 16 22 19 18 19 21 21 18 19 14 14 17 23 20 21 22 20 20 20 22 25 23 14 13 19 15 11 19 14 12 8 7 7 7 6 5 6 12 6 6 7 13 12 10 8 6 7 5 4 4 4 5 4 3 -1 -1 -1 -4 -13 -21 -23 -24 -22 -23 -21 -19 -17
26 24 18 27 26 18 17 20 30 27 23 21 17 21 20 21 21 20 22 20 18 19 19 16 17 22 24 22 21 15 14 18 17 19 23 23 19 21 23 20 21 17 18 20 20 17 15 10 17 14 11 13 11 11 14 6 6 5 4 5 4 4 5 8 12 8 9 6 5 6 5 7 7 5 1 -1 -1 -2 -7 -17 -23 -23 -23 -22 -21 -21 -20 -17
29 26 31 23 22 17 23 17 22 24 13 16 16 22 21 22 20 22 24 27 26 18 19 17 22 26 28 25 24 20 21 19 17 19 17 18 18 21 21 20 14 21 18 16 17 17 13 13 14 12 10 12 9 7 7 6 4 5 3 3 2 2 8 5 8 8 8 10 8 9 8 8 5 1 -0 -1 -1 -3 -9 -19 -22 -22 -22 -19 -20 -21 -19 -15
32 27 36 37 18 21 15 18 15 17 20 21 28 23 22 22 25 23 16 26 25 29 29 21 23 18 24 25 24 23 23 22 23 23 15 18 16 15 16 15 14 21 20 18 20 14 15 13 10 10 8 12 11 7 7 5 4 9 11 8 5 3 3 4 5 5 5 5 8 6 6 5 2 1 -1 -0 -2 -4 -11 -20 -22 -22 -20 -20 -20 -21 -18 -15